CW0352 Weather Reports


Display with metric or nautical units.
time (UTC)temp
F
wind
direction
speed
MPH
gust
MPH
rain 1hr
in
rain 24hr
in
rain mn
in
humidity
%
barometer
mb
20260508153504 61 0 6.0 18.0 0.00 0.00 0.00 55 1015.5
20260508153008 60 0 6.0 16.0 0.00 0.00 0.00 56 1015.4
20260508152452 60 0 5.0 16.0 0.00 0.00 0.00 58 1015.5
20260508151925 59 0 5.0 14.0 0.00 0.00 0.00 59 1015.4
20260508151422 59 0 5.0 16.0 0.00 0.00 0.00 61 1015.3
20260508151229 59 0 4.0 16.0 0.00 0.00 0.00 61 1015.2
20260508151157 59 0 4.0 16.0 0.00 0.00 0.00 61 1015.2
20260508150345 59 0 5.0 15.0 0.00 0.00 0.00 63 1015.2
20260508145816 58 0 5.0 15.0 0.00 0.00 0.00 63 1015.2
20260508145514 58 0 5.0 14.0 0.00 0.00 0.00 66 1015.3
20260508145356 58 0 5.0 14.0 0.00 0.00 0.00 66 1015.3
20260508144725 57 0 5.0 14.0 0.00 0.00 0.00 67 1015.2
20260508144443 56 0 4.0 11.0 0.00 0.00 0.00 69 1015.3
20260508144354 56 0 4.0 13.0 0.00 0.00 0.00 69 1015.2
20260508144326 56 0 4.0 11.0 0.00 0.00 0.00 69 1015.3
20260508144012 56 0 4.0 13.0 0.00 0.00 0.00 69 1015.2
20260508143150 56 0 5.0 13.0 0.00 0.00 0.00 68 1015.0
20260508142625 56 0 6.0 15.0 0.00 0.00 0.00 69 1015.0
20260508142133 56 0 5.0 14.0 0.00 0.00 0.00 69 1014.9
20260508142122 56 0 6.0 15.0 0.00 0.00 0.00 68 1015.0
20260508142044 56 0 5.0 14.0 0.00 0.00 0.00 69 1014.9
20260508141127 56 0 6.0 14.0 0.00 0.00 0.00 69 1014.9
20260508140612 56 0 7.0 14.0 0.00 0.00 0.00 70 1015.0
20260508140111 56 0 6.0 14.0 0.00 0.00 0.00 71 1015.0
20260508135554 55 0 5.0 15.0 0.00 0.00 0.00 73 1015.0
20260508135349 55 0 6.0 15.0 0.00 0.00 0.00 73 1014.8
20260508134752 55 0 7.0 14.0 0.00 0.00 0.00 74 1014.9
20260508134635 55 0 7.0 14.0 0.00 0.00 0.00 74 1014.9
20260508134030 55 0 6.0 14.0 0.00 0.00 0.00 75 1014.9
20260508133505 55 0 6.0 13.0 0.00 0.00 0.00 76 1014.8
20260508132955 55 0 6.0 16.0 0.00 0.00 0.00 76 1014.7
20260508132452 54 0 7.0 16.0 0.00 0.00 0.00 77 1014.6
20260508131937 54 0 7.0 15.0 0.00 0.00 0.00 78 1014.7
20260508131446 53 0 6.0 16.0 0.00 0.00 0.00 78 1014.5
20260508130920 53 0 5.0 16.0 0.00 0.00 0.00 78 1014.5
20260508130627 53 0 6.0 14.0 0.00 0.00 0.00 78 1014.4
20260508130509 53 0 6.0 14.0 0.00 0.00 0.00 78 1014.4
20260508125906 53 0 5.0 11.0 0.00 0.00 0.00 79 1014.4
20260508125355 53 0 5.0 10.0 0.00 0.00 0.00 79 1014.3
20260508125149 52 0 5.0 10.0 0.00 0.00 0.00 81 1014.3
20260508124549 52 0 4.0 8.0 0.00 0.00 0.00 82 1014.2
20260508124429 52 0 4.0 8.0 0.00 0.00 0.00 82 1014.2
20260508123828 51 0 4.0 9.0 0.00 0.00 0.00 83 1014.2
20260508123317 51 0 4.0 9.0 0.00 0.00 0.00 84 1013.9
20260508122751 51 0 4.0 10.0 0.00 0.00 0.00 84 1013.8
20260508122516 50 0 3.0 10.0 0.00 0.00 0.00 84 1013.8
20260508122353 50 0 3.0 10.0 0.00 0.00 0.00 84 1013.8
20260508121746 50 0 3.0 6.0 0.00 0.00 0.00 83 1013.5
20260508121444 50 0 3.0 6.0 0.00 0.00 0.00 83 1013.4
20260508121323 50 0 3.0 6.0 0.00 0.00 0.00 83 1013.4
20260508120935 50 0 3.0 6.0 0.00 0.00 0.00 82 1013.3
20260508120820 50 0 3.0 6.0 0.00 0.00 0.00 82 1013.3
20260508120149 50 0 3.0 6.0 0.00 0.00 0.00 82 1013.2
20260508115645 50 0 3.0 8.0 0.00 0.00 0.00 81 1013.2
20260508115141 50 0 3.0 8.0 0.00 0.00 0.00 81 1013.1
20260508114613 51 0 2.0 4.0 0.00 0.00 0.00 79 1013.1
20260508114049 51 0 2.0 5.0 0.00 0.00 0.00 79 1013.1
20260508113548 51 0 2.0 5.0 0.00 0.00 0.00 78 1013.0
20260508113043 52 0 2.0 4.0 0.00 0.00 0.00 78 1013.1
20260508112542 52 0 3.0 6.0 0.00 0.00 0.00 77 1013.1
20260508112016 53 0 3.0 6.0 0.00 0.00 0.00 76 1013.1
20260508111516 53 0 4.0 8.0 0.00 0.00 0.00 76 1013.1
20260508111015 53 0 4.0 9.0 0.00 0.00 0.00 75 1013.1
20260508110503 54 0 3.0 9.0 0.00 0.00 0.00 74 1013.2
20260508105943 54 0 3.0 8.0 0.00 0.00 0.00 73 1013.1
20260508105444 55 0 3.0 8.0 0.00 0.00 0.00 73 1013.0
20260508105148 55 0 3.0 8.0 0.00 0.00 0.00 72 1013.0
20260508105030 55 0 3.0 8.0 0.00 0.00 0.00 72 1013.0
20260508104420 55 0 4.0 12.0 0.00 0.00 0.00 72 1013.0
20260508104145 56 0 4.0 12.0 0.00 0.00 0.00 71 1013.0
20260508104024 56 0 4.0 12.0 0.00 0.00 0.00 71 1013.0
20260508103359 56 0 4.0 10.0 0.00 0.00 0.00 71 1013.0
20260508103109 56 0 4.0 10.0 0.00 0.00 0.00 70 1013.1
20260508102941 56 0 4.0 10.0 0.00 0.00 0.00 70 1013.1
20260508102336 56 0 5.0 10.0 0.00 0.00 0.00 70 1013.2
20260508101821 57 0 5.0 10.0 0.00 0.00 0.00 69 1013.2
20260508101323 57 0 5.0 13.0 0.00 0.00 0.00 69 1013.1
20260508100759 57 0 6.0 13.0 0.00 0.00 0.00 68 1013.1
20260508100246 57 0 6.0 13.0 0.00 0.00 0.00 68 1013.1
20260508095745 57 0 6.0 13.0 0.00 0.00 0.00 68 1013.2
20260508095242 57 0 5.0 12.0 0.00 0.00 0.00 67 1013.2
20260508094719 57 0 5.0 10.0 0.00 0.00 0.00 67 1013.2
20260508094201 57 0 5.0 10.0 0.00 0.00 0.00 67 1013.2
20260508093658 57 0 5.0 10.0 0.00 0.00 0.00 67 1013.2
20260508093157 57 0 5.0 9.0 0.00 0.00 0.00 68 1013.2
20260508092657 56 0 5.0 9.0 0.00 0.00 0.00 69 1013.4
20260508092139 56 0 5.0 9.0 0.00 0.00 0.00 69 1013.4
20260508091910 56 0 5.0 11.0 0.00 0.00 0.00 69 1013.5
20260508091744 56 0 5.0 11.0 0.00 0.00 0.00 69 1013.5
20260508091116 56 0 5.0 11.0 0.00 0.00 0.00 69 1013.5
20260508090614 56 0 5.0 12.0 0.00 0.00 0.00 69 1013.7
20260508090425 56 0 5.0 12.0 0.00 0.00 0.00 69 1013.8
20260508085612 56 0 6.0 12.0 0.00 0.00 0.00 69 1013.9
20260508085108 57 0 6.0 12.0 0.00 0.00 0.00 70 1013.8
20260508084802 57 0 5.0 11.0 0.00 0.00 0.00 69 1014.1
20260508084646 57 0 5.0 11.0 0.00 0.00 0.00 69 1014.1
20260508084042 57 0 5.0 10.0 0.00 0.00 0.00 68 1013.9
20260508083536 58 0 5.0 11.0 0.00 0.00 0.00 67 1014.2
20260508083014 58 0 6.0 11.0 0.00 0.00 0.00 66 1014.1
20260508082510 58 0 6.0 14.0 0.00 0.00 0.00 65 1014.2
20260508082001 58 0 6.0 14.0 0.00 0.00 0.00 64 1014.2
20260508081507 59 0 6.0 13.0 0.00 0.00 0.00 63 1014.2
20260508081002 59 0 6.0 13.0 0.00 0.00 0.00 62 1014.2
20260508080459 59 0 6.0 12.0 0.00 0.00 0.00 61 1014.2
20260508075932 59 0 5.0 14.0 0.00 0.00 0.00 61 1014.2
20260508075430 59 0 7.0 14.0 0.00 0.00 0.00 61 1014.1
20260508074930 59 0 8.0 18.0 0.00 0.00 0.00 61 1014.3
20260508074359 59 0 7.0 18.0 0.00 0.00 0.00 59 1014.2
20260508073858 59 0 6.0 13.0 0.00 0.00 0.00 59 1014.2
20260508073359 59 0 6.0 11.0 0.00 0.00 0.00 59 1014.1
20260508072834 59 0 5.0 13.0 0.00 0.00 0.00 60 1014.1
20260508072330 58 0 5.0 13.0 0.00 0.00 0.00 60 1013.9
20260508071803 58 0 6.0 19.0 0.00 0.00 0.00 60 1013.8
20260508071235 58 0 6.0 19.0 0.00 0.00 0.00 62 1013.8
20260508070735 57 0 5.0 10.0 0.00 0.00 0.00 63 1013.8
20260508070228 57 0 5.0 12.0 0.00 0.00 0.00 64 1013.8
20260508065730 56 0 4.0 12.0 0.00 0.00 0.00 66 1014.1
20260508065213 56 0 3.0 6.0 0.00 0.00 0.00 66 1013.8
20260508064704 56 0 3.0 6.0 0.00 0.00 0.00 66 1013.7
20260508064201 57 0 3.0 6.0 0.00 0.00 0.00 66 1013.8
20260508063642 57 0 3.0 6.0 0.00 0.00 0.00 64 1013.7
20260508063406 57 0 2.0 6.0 0.00 0.00 0.00 63 1013.6
20260508063248 57 0 2.0 6.0 0.00 0.00 0.00 63 1013.6
20260508062850 57 0 2.0 5.0 0.00 0.00 0.00 62 1013.5
20260508062722 57 0 2.0 5.0 0.00 0.00 0.00 62 1013.5
20260508062114 58 0 2.0 5.0 0.00 0.00 0.00 61 1013.3
20260508061546 57 0 2.0 5.0 0.00 0.00 0.00 61 1013.3
20260508061045 57 0 2.0 5.0 0.00 0.00 0.00 61 1013.3
20260508060540 57 0 2.0 3.0 0.00 0.00 0.00 61 1013.3
20260508060036 57 0 2.0 4.0 0.00 0.00 0.00 61 1013.4
20260508055514 57 0 1.0 4.0 0.00 0.00 0.00 61 1013.5
20260508055010 57 0 1.0 3.0 0.00 0.00 0.00 60 1013.5
20260508054709 57 0 2.0 4.0 0.00 0.00 0.00 60 1013.6
20260508054555 57 0 2.0 4.0 0.00 0.00 0.00 60 1013.6
20260508053940 57 0 1.0 4.0 0.00 0.00 0.00 61 1013.6
20260508053419 57 0 1.0 2.0 0.00 0.00 0.00 61 1013.7
20260508052907 56 0 1.0 2.0 0.00 0.00 0.00 61 1013.6
20260508052409 56 0 1.0 2.0 0.00 0.00 0.00 61 1013.5
20260508052235 55 0 1.0 2.0 0.00 0.00 0.00 62 1013.5
20260508052156 55 0 1.0 2.0 0.00 0.00 0.00 62 1013.5
20260508051400 55 0 0.0 2.0 0.00 0.00 0.00 61 1013.4
20260508051048 55 0 1.0 2.0 0.00 0.00 0.00 62 1013.5
20260508050934 55 0 1.0 2.0 0.00 0.00 0.00 62 1013.5
20260508050330 55 0 1.0 2.0 0.00 0.00 0.00 63 1013.5
20260508045807 55 0 1.0 3.0 0.00 0.00 0.00 63 1013.6
20260508045306 55 0 1.0 3.0 0.00 0.00 0.00 63 1013.7
20260508044736 55 0 1.0 3.0 0.00 0.00 0.00 63 1013.7
20260508044230 55 0 1.0 3.0 0.00 0.00 0.00 63 1013.7
20260508043727 55 0 1.0 4.0 0.00 0.00 0.00 63 1013.8
20260508043202 55 0 2.0 6.0 0.00 0.00 0.00 63 1013.8
20260508042634 56 0 1.0 5.0 0.00 0.00 0.00 62 1013.7
20260508042131 57 0 0.0 1.0 0.00 0.00 0.00 61 1013.6
20260508041606 57 0 0.0 1.0 0.00 0.00 0.00 60 1013.5
20260508041037 57 0 0.0 1.0 0.00 0.00 0.00 58 1013.4
20260508040523 57 0 0.0 0.0 0.00 0.00 0.00 58 1013.3
20260508040021 58 0 0.0 0.0 0.00 0.00 0.00 56 1013.2
20260508035745 58 0 0.0 0.0 0.00 0.00 0.00 57 1013.3
20260508035623 58 0 0.0 0.0 0.00 0.00 0.00 57 1013.3
20260508035019 58 0 0.0 0.0 0.00 0.00 0.00 55 1013.4
20260508034451 58 0 0.0 0.0 0.00 0.00 0.00 53 1013.5
20260508033945 59 0 0.0 1.0 0.00 0.00 0.00 53 1013.5
20260508033441 59 0 0.0 1.0 0.00 0.00 0.00 54 1013.4
20260508032916 60 0 0.0 0.0 0.00 0.00 0.00 52 1013.3
20260508032353 61 0 0.0 3.0 0.00 0.00 0.00 52 1013.2
20260508031858 61 0 0.0 3.0 0.00 0.00 0.00 50 1013.2
20260508031353 62 0 0.0 4.0 0.00 0.00 0.00 50 1013.1
20260508030853 62 0 0.0 4.0 0.00 0.00 0.00 48 1013.0
20260508030402 63 0 0.0 0.0 0.00 0.00 0.00 44 1012.7
20260508025820 63 0 0.0 0.0 0.00 0.00 0.00 43 1012.7
20260508025300 64 0 0.0 0.0 0.00 0.00 0.00 43 1012.6
20260508024758 64 0 0.0 0.0 0.00 0.00 0.00 42 1012.6
20260508024249 64 0 0.0 0.0 0.00 0.00 0.00 42 1012.5
20260508023745 65 0 0.0 0.0 0.00 0.00 0.00 41 1012.6
20260508023241 65 0 0.0 0.0 0.00 0.00 0.00 41 1012.5
20260508022721 65 0 0.0 0.0 0.00 0.00 0.00 41 1012.5
20260508022441 66 0 0.0 0.0 0.00 0.00 0.00 40 1012.4
20260508022321 66 0 0.0 0.0 0.00 0.00 0.00 40 1012.4
20260508021700 66 0 0.0 0.0 0.00 0.00 0.00 40 1012.4
20260508021352 67 0 0.0 0.0 0.00 0.00 0.00 39 1012.4
20260508021237 67 0 0.0 0.0 0.00 0.00 0.00 39 1012.4
20260508020621 67 0 0.0 0.0 0.00 0.00 0.00 37 1012.5
20260508020117 68 0 0.0 1.0 0.00 0.00 0.00 38 1012.3
20260508015615 68 0 0.0 3.0 0.00 0.00 0.00 37 1012.3
20260508015110 68 0 0.0 3.0 0.00 0.00 0.00 37 1012.3
20260508014925 69 0 0.0 3.0 0.00 0.00 0.00 36 1012.3
20260508014847 69 0 0.0 3.0 0.00 0.00 0.00 36 1012.3
20260508014027 69 0 0.0 3.0 0.00 0.00 0.00 35 1012.2
20260508013501 70 0 0.0 1.0 0.00 0.00 0.00 34 1012.1
20260508012943 70 0 0.0 1.0 0.00 0.00 0.00 34 1012.1
20260508012439 71 0 0.0 2.0 0.00 0.00 0.00 34 1012.0
20260508011918 71 0 0.0 3.0 0.00 0.00 0.00 33 1012.0
20260508011416 71 0 1.0 4.0 0.00 0.00 0.00 33 1012.0
20260508010915 72 0 1.0 4.0 0.00 0.00 0.00 32 1012.1
20260508010355 72 0 1.0 6.0 0.00 0.00 0.00 32 1012.1
20260508005856 72 0 2.0 6.0 0.00 0.00 0.00 32 1012.1
20260508005335 73 0 2.0 5.0 0.00 0.00 0.00 32 1012.1
20260508004811 73 0 1.0 5.0 0.00 0.00 0.00 32 1012.1
20260508004256 73 0 1.0 6.0 0.00 0.00 0.00 31 1012.0
20260508003746 73 0 2.0 8.0 0.00 0.00 0.00 31 1012.0
20260508003248 74 0 2.0 8.0 0.00 0.00 0.00 30 1011.9
20260508002748 74 0 3.0 10.0 0.00 0.00 0.00 29 1012.0
20260508002248 74 0 3.0 10.0 0.00 0.00 0.00 29 1012.0
20260508001742 75 0 2.0 6.0 0.00 0.00 0.00 29 1012.1
20260508001237 76 0 2.0 9.0 0.00 0.00 0.00 28 1012.1
20260508001001 76 0 3.0 8.0 0.00 0.00 0.00 28 1012.0
20260508000730 76 0 3.0 8.0 0.00 0.00 0.00 28 1012.0
20260508000720 76 0 3.0 9.0 0.00 0.00 0.00 28 1012.0
20260508000334 76 0 3.0 9.0 0.00 0.00 0.00 28 1012.0
20260507235919 76 0 3.0 9.0 0.00 0.00 0.00 27 1012.0
20260507235802 76 0 3.0 9.0 0.00 0.00 0.00 27 1012.0
20260507235154 76 0 4.0 9.0 0.00 0.00 0.00 27 1011.9
20260507234627 76 0 4.0 9.0 0.00 0.00 0.00 27 1012.1
20260507234123 76 0 4.0 10.0 0.00 0.00 0.00 27 1012.1
20260507233559 76 0 3.0 10.0 0.00 0.00 0.00 26 1012.0
20260507233034 76 0 2.0 8.0 0.00 0.00 0.00 27 1012.0
20260507232806 76 0 3.0 10.0 0.00 0.00 0.00 27 1012.1
20260507232639 76 0 3.0 10.0 0.00 0.00 0.00 27 1012.1
20260507232043 76 0 4.0 10.0 0.00 0.00 0.00 27 1012.1
20260507231534 76 0 4.0 10.0 0.00 0.00 0.00 27 1012.2
20260507231108 76 0 4.0 10.0 0.00 0.00 0.00 26 1012.1
20260507230507 76 0 4.0 10.0 0.00 0.00 0.00 26 1012.2
20260507230012 76 0 5.0 11.0 0.00 0.00 0.00 26 1012.2
20260507225649 76 0 5.0 11.0 0.00 0.00 0.00 26 1012.1
20260507225156 76 0 4.0 11.0 0.00 0.00 0.00 26 1012.1
20260507224319 75 0 3.0 9.0 0.00 0.00 0.00 27 1012.1
20260507224035 75 0 3.0 9.0 0.00 0.00 0.00 28 1012.2
20260507223916 75 0 3.0 9.0 0.00 0.00 0.00 28 1012.2
20260507223503 75 0 4.0 11.0 0.00 0.00 0.00 28 1012.2
20260507223345 75 0 4.0 11.0 0.00 0.00 0.00 28 1012.2
20260507223002 75 0 5.0 12.0 0.00 0.00 0.00 27 1012.1
20260507222845 75 0 5.0 12.0 0.00 0.00 0.00 27 1012.1
20260507222232 74 0 6.0 12.0 0.00 0.00 0.00 26 1012.2
20260507222014 74 0 6.0 15.0 0.00 0.00 0.00 27 1012.3
20260507221841 74 0 6.0 15.0 0.00 0.00 0.00 27 1012.3
20260507221222 74 0 6.0 15.0 0.00 0.00 0.00 27 1012.3
20260507220654 75 0 6.0 13.0 0.00 0.00 0.00 26 1012.3
20260507220418 75 0 7.0 17.0 0.00 0.00 0.00 26 1012.4
20260507220255 75 0 7.0 17.0 0.00 0.00 0.00 26 1012.4
20260507215644 75 0 9.0 17.0 0.00 0.00 0.00 27 1012.4
20260507215118 75 0 8.0 16.0 0.00 0.00 0.00 27 1012.4
20260507214618 76 0 7.0 13.0 0.00 0.00 0.00 26 1012.4
20260507214102 76 0 6.0 14.0 0.00 0.00 0.00 26 1012.5
20260507213554 76 0 6.0 15.0 0.00 0.00 0.00 25 1012.4
20260507213026 77 0 7.0 15.0 0.00 0.00 0.00 25 1012.6
20260507212501 77 0 6.0 14.0 0.00 0.00 0.00 25 1012.7
20260507211956 77 0 6.0 12.0 0.00 0.00 0.00 25 1012.7
20260507211433 77 0 5.0 13.0 0.00 0.00 0.00 24 1012.7
20260507210904 77 0 5.0 13.0 0.00 0.00 0.00 26 1012.8
20260507210359 77 0 6.0 14.0 0.00 0.00 0.00 26 1013.0
20260507205833 76 0 6.0 13.0 0.00 0.00 0.00 25 1013.1
20260507205328 76 0 8.0 16.0 0.00 0.00 0.00 26 1013.1
20260507204810 75 0 8.0 16.0 0.00 0.00 0.00 26 1013.2
20260507204514 75 0 8.0 14.0 0.00 0.00 0.00 26 1013.1
20260507204348 75 0 8.0 14.0 0.00 0.00 0.00 26 1013.1
20260507203740 75 0 9.0 15.0 0.00 0.00 0.00 25 1013.2
20260507203211 75 0 9.0 15.0 0.00 0.00 0.00 25 1013.4
20260507202645 76 0 8.0 17.0 0.00 0.00 0.00 24 1013.5
20260507202144 76 0 7.0 17.0 0.00 0.00 0.00 25 1013.5
20260507201653 75 0 6.0 14.0 0.00 0.00 0.00 26 1013.7
20260507201115 76 0 6.0 14.0 0.00 0.00 0.00 26 1013.7
20260507200846 75 0 7.0 18.0 0.00 0.00 0.00 25 1013.8
20260507200716 75 0 7.0 18.0 0.00 0.00 0.00 25 1013.8
20260507200129 75 0 5.0 18.0 0.00 0.00 0.00 26 1013.8
20260507195607 75 0 5.0 13.0 0.00 0.00 0.00 27 1013.9
20260507195109 75 0 6.0 13.0 0.00 0.00 0.00 26 1013.9
20260507194607 75 0 5.0 11.0 0.00 0.00 0.00 26 1013.9
20260507194550 75 0 5.0 12.0 0.00 0.00 0.00 27 1013.9
20260507194520 75 0 5.0 11.0 0.00 0.00 0.00 26 1013.9
20260507193522 74 0 5.0 11.0 0.00 0.00 0.00 28 1014.1
20260507192956 74 0 5.0 12.0 0.00 0.00 0.00 29 1014.1
20260507192451 74 0 5.0 12.0 0.00 0.00 0.00 28 1014.2
20260507191930 74 0 6.0 12.0 0.00 0.00 0.00 28 1014.2
20260507191624 73 0 6.0 20.0 0.00 0.00 0.00 28 1014.2
20260507191509 73 0 6.0 20.0 0.00 0.00 0.00 28 1014.2
20260507190841 73 0 7.0 20.0 0.00 0.00 0.00 27 1014.3
20260507190337 74 0 7.0 17.0 0.00 0.00 0.00 28 1014.4
20260507185811 73 0 6.0 13.0 0.00 0.00 0.00 27 1014.3
20260507185247 74 0 5.0 11.0 0.00 0.00 0.00 27 1014.4
20260507184728 73 0 5.0 14.0 0.00 0.00 0.00 27 1014.4
20260507184226 73 0 5.0 14.0 0.00 0.00 0.00 28 1014.4
20260507183726 73 0 5.0 11.0 0.00 0.00 0.00 29 1014.5
20260507183226 72 0 5.0 11.0 0.00 0.00 0.00 29 1014.5
20260507182723 72 0 6.0 12.0 0.00 0.00 0.00 29 1014.6
20260507182209 72 0 7.0 13.0 0.00 0.00 0.00 29 1014.7
20260507181633 72 0 6.0 13.0 0.00 0.00 0.00 28 1014.7
20260507181405 72 0 6.0 16.0 0.00 0.00 0.00 31 1014.7
20260507181240 72 0 6.0 16.0 0.00 0.00 0.00 31 1014.7
20260507180616 71 0 8.0 16.0 0.00 0.00 0.00 30 1014.8
20260507180117 71 0 8.0 13.0 0.00 0.00 0.00 29 1014.7
20260507175606 71 0 8.0 17.0 0.00 0.00 0.00 29 1014.8
20260507175434 71 0 8.0 17.0 0.00 0.00 0.00 29 1014.8
20260507175357 71 0 8.0 17.0 0.00 0.00 0.00 29 1014.8
20260507174823 70 0 9.0 15.0 0.00 0.00 0.00 30 1014.8
20260507174709 70 0 9.0 15.0 0.00 0.00 0.00 30 1014.8
20260507174106 70 0 8.0 15.0 0.00 0.00 0.00 32 1014.8
20260507173548 70 0 7.0 13.0 0.00 0.00 0.00 34 1014.9
20260507173302 70 0 8.0 15.0 0.00 0.00 0.00 34 1015.0
20260507173132 70 0 8.0 15.0 0.00 0.00 0.00 34 1015.0
20260507172520 69 0 8.0 15.0 0.00 0.00 0.00 35 1015.0
20260507172253 69 0 8.0 16.0 0.00 0.00 0.00 35 1015.2
20260507172121 69 0 8.0 16.0 0.00 0.00 0.00 35 1015.2
20260507171522 69 0 9.0 16.0 0.00 0.00 0.00 35 1015.3
20260507171017 69 0 9.0 19.0 0.00 0.00 0.00 34 1015.4
20260507170525 69 0 10.0 19.0 0.00 0.00 0.00 33 1015.3
20260507170019 69 0 7.0 17.0 0.00 0.00 0.00 34 1015.3
20260507165517 69 0 7.0 16.0 0.00 0.00 0.00 37 1015.4
20260507164959 68 0 9.0 16.0 0.00 0.00 0.00 35 1015.3
20260507164502 67 0 9.0 18.0 0.00 0.00 0.00 36 1015.3
20260507163958 67 0 9.0 18.0 0.00 0.00 0.00 37 1015.4
20260507163503 66 0 8.0 16.0 0.00 0.00 0.00 39 1015.4
20260507162958 66 0 8.0 13.0 0.00 0.00 0.00 41 1015.5
20260507162458 66 0 8.0 15.0 0.00 0.00 0.00 42 1015.5
20260507161935 65 0 8.0 15.0 0.00 0.00 0.00 41 1015.5
20260507161424 65 0 10.0 17.0 0.00 0.00 0.00 43 1015.5
20260507160923 64 0 9.0 17.0 0.00 0.00 0.00 41 1015.6
20260507160419 64 0 9.0 18.0 0.00 0.00 0.00 43 1015.7
20260507160136 64 0 10.0 18.0 0.00 0.00 0.00 42 1015.7
20260507160018 64 0 10.0 18.0 0.00 0.00 0.00 42 1015.7
20260507155347 64 0 9.0 14.0 0.00 0.00 0.00 42 1015.7
20260507155055 63 0 8.0 14.0 0.00 0.00 0.00 43 1015.7
20260507154926 63 0 8.0 14.0 0.00 0.00 0.00 43 1015.7
20260507154256 62 0 8.0 16.0 0.00 0.00 0.00 46 1015.7
20260507153727 62 0 8.0 16.0 0.00 0.00 0.00 47 1015.7